sat.trackr.live / text

‹ back to catalog

STARLINK-36669

NORAD 68675 · 2026-077P

PAYLOAD ACTIVE UNKNOWN

§ Identity

Operator
Country
US
Launch date
2026-04-11
Launch site
AFWTR
Launch vehicle
Mass (kg)
RCS (m²)

Purposes: comms

External: N2YO · Heavens-Above · Gunter

§ Orbital elements

Epoch: 2026-05-25T03:05:31.627392Z

Period
93.91 min
Inclination
97.2865°
Eccentricity
0.0001044
Mean motion
15.33453699 rev/d
Perigee alt
464.8 km
Apogee alt
466.2 km
Semi-major
6,843.7 km
B*
5.9872e-4
RAAN
16.7214°
Arg perigee
81.2169°
Mean anomaly
278.9192°
Rev number
687

§ Raw data

STARLINK-366691 68675U 26077P   26145.12883828  .00019308  00000+0  59872-3 0  99962 68675  97.2865  16.7214 0001044  81.2169 278.9192 15.33453699  6875

JSON: /api/v1/satellites/68675 · /tle

For live sub-satellite position, see the globe view (requires WebGL).

§ Visibility from observer

Set your observer location to see the next 7 days of passes ≥ 10°. The values pass through the URL so the page stays shareable.

No JS? Fill the form by hand. The geolocation button needs JavaScript.